Regional Weather Roundup
Issued by NWS

Home | Current Version | Previous Version | Text Only | Print | Product List | Glossary Off
Versions: 1 2 3 4 5 6 7 8 9 10 11 12 13 14 15 16 17 18 19 20 21 22 23 24 25 26 27 28

000
ASUS45 KSLC 190210
RWRUT

UTAH REGIONAL WEATHER ROUNDUP
NATIONAL WEATHER SERVICE SALT LAKE CITY UT
800 PM MDT FRI AUG 18 2017

UTZ001>011-023>025-190300-

NORTHERN UTAH

CITY           SKY/WX    TMP DP  RH WIND       PRES   REMARKS
BRIGHAM CITY   CLEAR     85  30  14 SE3       30.06F
HILL AFB       CLEAR     83  28  13 CALM      30.11F
LOGAN          CLEAR     84  35  17 S7        30.07F
OGDEN          CLEAR     84  30  14 W3        30.07F
SALT LAKE CITY PTCLDY    88  35  15 N9        30.05F
TOOELE VALLEY  CLEAR     79  50  36 NW3       30.07S
WENDOVER       CLEAR     88  34  14 E6        30.04F
HEBER CITY     CLEAR     79  36  21 NW5       30.14S
WEST JORDAN    CLEAR     83  50  32 CALM      30.10S

$$

UTZ011>015-024>027-190300-

CENTRAL/NORTHEAST UTAH

CITY           SKY/WX    TMP DP  RH WIND       PRES   REMARKS
PROVO AIRPORT  CLEAR     83  53  35 NW10      30.07F
MOAB/CANYONLAN CLEAR     90  25   9 CALM      30.03F
DELTA          CLEAR     88  30  12 CALM      30.07F
PRICE          CLEAR     84  31  14 W8        30.16S
ROOSEVELT      CLOUDY    86  36  16 CALM      30.11S
VERNAL         CLEAR     82  38  20 NE6       30.10S

$$

UTZ013>016-019>022-027-190300-

SOUTHERN UTAH

CITY           SKY/WX    TMP DP  RH WIND       PRES   REMARKS
BRYCE CANYON   PTCLDY    65  41  41 W8        30.34S
CEDAR CITY     PTCLDY    78  43  28 W5        30.15S
MILFORD        PTCLDY    88  33  14 W9        30.08F
HANKSVILLE     CLEAR     90  32  12 S5        30.05S
BLANDING       CLEAR     82  30  15 CALM      30.24S

$$

REGIONAL REPORTS     COLORADO/ARIZONA

CITY           SKY/WX    TMP DP  RH WIND       PRES   REMARKS
CRAIG, CO      CLEAR     73  27  18 W8        30.18S
GRAND JUNCTION CLEAR     85  29  13 N8        30.07S
RIFLE, CO      CLEAR     83  25  12 W5        30.13R
MONTROSE, CO   CLEAR     79  44  28 SW3       30.17R
CORTEZ, CO     CLEAR     77  33  20 SW5       30.17F
COLORADO CITY    N/A     88  45  22 NW3       30.11S
PAGE, AZ       CLEAR     93  32  11 E3        30.02S
GRAND CANYON   PTCLDY    77  33  20 SW8       30.26S
KINGMAN, AZ    CLEAR     91  33  12 SW8       30.00F
FLAGSTAFF, AZ  CLEAR     69  33  26 SW5       30.30S

$$

REGIONAL REPORTS    NEVADA/IDAHO/WYOMING

CITY           SKY/WX    TMP DP  RH WIND       PRES   REMARKS
LAS VEGAS, NV  PTCLDY   101  35  10 VRB7      29.87S HX  95
ELY, NY        MOCLDY    82  30  15 S6        30.18F
ELKO, NV       CLEAR     84  21  10 SW8       30.10F
POCATELLO, ID  CLEAR     80  35  19 SW9       30.08F
BURLEY, ID     CLEAR     75  42  30 SW6       30.05F
FORT BRIDGER,    N/A     75  26  16 W15G22    30.30R
EVANSTON, WY   CLEAR     72  29  20 W15       30.28S
ROCK SPRINGS,  CLEAR     76  27  16 W14       30.22R
KEMMERER, WY     N/A     70  23  17 W12       30.28S

$$




USA.gov is the U.S. government's official web portal to all federal, state and local government web resources and services.